When you browse on this site, cookies collect data to enhance your experience and personalize the content and advertising you see.
Visit our Privacy Policy to learn more. By continuing to use the site, you agree to this use of cookies and data.
  • Em Portugal
  • Lista de países
  • Para 7 dias
  • Temperatura da água
  • Mapa do tempo
  • Widgets de tempo
  • user-avatar
    Iniciar Sessão

    Previsão horária em Grevenmacher

    Hoje, 8 Abril, Quarta-feira

    Tempo Temperatura Precipitação Vento Pressão Humidade
    00:00 +12°C° 0 mm 1 m/s 744 mmHg 81%
    01:00 +11°C° 0 mm 1 m/s 744 mmHg 82%
    02:00 +11°C° 0 mm 1 m/s 744 mmHg 83%
    03:00 +10°C° 0 mm 1 m/s 743 mmHg 84%
    04:00 +11°C° 0 mm 1 m/s 743 mmHg 83%
    05:00 +11°C° 0 mm 1 m/s 744 mmHg 82%
    06:00 +11°C° 0 mm 1 m/s 744 mmHg 80%
    07:00 +13°C° 0 mm 1 m/s 744 mmHg 73%
    08:00 +15°C° 0 mm 1 m/s 744 mmHg 66%
    09:00 +19°C° 0 mm 1 m/s 744 mmHg 58%
    10:00 +20°C° 0 mm 1 m/s 743 mmHg 53%
    11:00 +21°C° 0 mm 1 m/s 743 mmHg 48%
    12:00 +22°C° 0 mm 1 m/s 743 mmHg 42%
    13:00 +22°C° 0 mm 1 m/s 743 mmHg 41%
    14:00 +22°C° 0 mm 1 m/s 742 mmHg 40%
    15:00 +22°C° 0 mm 1 m/s 742 mmHg 39%
    16:00 +21°C° 0 mm 1 m/s 742 mmHg 44%
    17:00 +19°C° 0 mm 1 m/s 742 mmHg 49%
    18:00 +18°C° 0 mm 1 m/s 741 mmHg 54%
    19:00 +16°C° 0 mm 1 m/s 742 mmHg 56%
    20:00 +15°C° 0 mm 1 m/s 742 mmHg 57%
    21:00 +15°C° 0 mm 1 m/s 742 mmHg 59%
    22:00 +14°C° 0 mm 1 m/s 742 mmHg 60%
    23:00 +14°C° 0 mm 1 m/s 742 mmHg 62%

    Amanhã, 9 Abril, Quinta-feira

    Tempo Temperatura Precipitação Vento Pressão Humidade
    00:00 +12°C° 0 mm 0 m/s 742 mmHg 63%
    01:00 +12°C° 0 mm 0 m/s 742 mmHg 64%
    02:00 +12°C° 0 mm 0 m/s 742 mmHg 65%
    03:00 +12°C° 0 mm 0 m/s 742 mmHg 66%
    04:00 +12°C° 0 mm 0 m/s 742 mmHg 67%
    05:00 +12°C° 0 mm 0 m/s 742 mmHg 68%
    06:00 +13°C° 0 mm 0 m/s 742 mmHg 69%
    07:00 +14°C° 0 mm 0 m/s 742 mmHg 65%
    08:00 +15°C° 0 mm 0 m/s 743 mmHg 61%
    09:00 +19°C° 0 mm 1 m/s 743 mmHg 57%
    10:00 +20°C° 0 mm 1 m/s 743 mmHg 52%
    11:00 +21°C° 0 mm 1 m/s 743 mmHg 47%
    12:00 +22°C° 0 mm 1 m/s 743 mmHg 43%
    13:00 +22°C° 0 mm 1 m/s 743 mmHg 44%
    14:00 +22°C° 0 mm 1 m/s 742 mmHg 46%
    15:00 +21°C° 0 mm 1 m/s 742 mmHg 48%
    16:00 +20°C° 0 mm 1 m/s 742 mmHg 54%
    17:00 +18°C° 0 mm 2 m/s 742 mmHg 61%
    18:00 +16°C° 0 mm 2 m/s 742 mmHg 67%
    19:00 +15°C° 0 mm 2 m/s 743 mmHg 71%
    20:00 +14°C° 0 mm 2 m/s 743 mmHg 75%
    21:00 +13°C° 0 mm 2 m/s 743 mmHg 79%
    22:00 +13°C° 0 mm 2 m/s 743 mmHg 82%
    23:00 +12°C° 0 mm 2 m/s 743 mmHg 86%

    Depois de amanhã, 10 Abril, Sexta-feira

    Tempo Temperatura Precipitação Vento Pressão Humidade
    00:00 +12°C° 0 mm 2 m/s 743 mmHg 90%
    01:00 +10°C° 0 mm 2 m/s 743 mmHg 90%
    02:00 +10°C° 0 mm 2 m/s 743 mmHg 91%
    03:00 +9°C° 0 mm 2 m/s 743 mmHg 92%
    04:00 +9°C° 0 mm 2 m/s 743 mmHg 91%
    05:00 +9°C° 0 mm 2 m/s 743 mmHg 90%
    06:00 +10°C° 0 mm 2 m/s 743 mmHg 88%
    07:00 +13°C° 0 mm 2 m/s 743 mmHg 81%
    08:00 +15°C° 0 mm 2 m/s 744 mmHg 73%
    09:00 +17°C° 0 mm 2 m/s 744 mmHg 65%
    10:00 +18°C° 0 mm 2 m/s 744 mmHg 59%
    11:00 +19°C° 0 mm 2 m/s 743 mmHg 53%
    12:00 +20°C° 0 mm 2 m/s 743 mmHg 47%
    13:00 +20°C° 0 mm 2 m/s 743 mmHg 47%
    14:00 +20°C° 0 mm 3 m/s 742 mmHg 47%
    15:00 +20°C° 0 mm 3 m/s 742 mmHg 47%
    16:00 +18°C° 0 mm 2 m/s 742 mmHg 54%
    17:00 +17°C° 0 mm 2 m/s 742 mmHg 61%
    18:00 +15°C° 0 mm 2 m/s 741 mmHg 67%
    19:00 +14°C° 0 mm 2 m/s 742 mmHg 69%
    20:00 +13°C° 0 mm 2 m/s 742 mmHg 71%
    21:00 +12°C° 0 mm 2 m/s 742 mmHg 73%
    22:00 +10°C° 0 mm 2 m/s 742 mmHg 74%
    23:00 +11°C° 0 mm 1 m/s 742 mmHg 75%

    11 Abril, Sábado

    Tempo Temperatura Precipitação Vento Pressão Humidade
    00:00 +10°C° 0 mm 1 m/s 742 mmHg 76%
    01:00 +10°C° 0 mm 1 m/s 742 mmHg 77%
    02:00 +9°C° 0 mm 1 m/s 742 mmHg 78%
    03:00 +9°C° 0 mm 1 m/s 742 mmHg 80%
    04:00 +9°C° 0 mm 1 m/s 742 mmHg 80%
    05:00 +10°C° 0 mm 1 m/s 742 mmHg 80%
    06:00 +10°C° 0 mm 1 m/s 742 mmHg 80%
    07:00 +12°C° 0 mm 1 m/s 742 mmHg 73%
    08:00 +15°C° 0 mm 1 m/s 742 mmHg 65%
    09:00 +18°C° 0 mm 1 m/s 742 mmHg 58%
    10:00 +19°C° 0 mm 1 m/s 742 mmHg 54%
    11:00 +21°C° 0 mm 1 m/s 741 mmHg 50%
    12:00 +22°C° 0 mm 1 m/s 741 mmHg 45%
    13:00 +22°C° 0 mm 1 m/s 741 mmHg 44%
    14:00 +22°C° 0 mm 1 m/s 741 mmHg 43%
    15:00 +22°C° 0 mm 1 m/s 740 mmHg 42%
    16:00 +20°C° 0 mm 1 m/s 740 mmHg 49%
    17:00 +16°C° 0 mm 0 m/s 740 mmHg 55%
    18:00 +15°C° 0 mm 0 m/s 739 mmHg 61%
    19:00 +14°C° 0 mm 0 m/s 739 mmHg 64%
    20:00 +13°C° 0 mm 0 m/s 739 mmHg 67%
    21:00 +13°C° 0 mm 1 m/s 740 mmHg 70%
    22:00 +11°C° 0 mm 0 m/s 739 mmHg 72%
    23:00 +11°C° 0 mm 0 m/s 739 mmHg 74%

    12 Abril, Domingo

    Tempo Temperatura Precipitação Vento Pressão Humidade
    00:00 +10°C° 0 mm 0 m/s 739 mmHg 76%
    01:00 +10°C° 0 mm 0 m/s 739 mmHg 77%
    02:00 +9°C° 0 mm 0 m/s 738 mmHg 79%
    03:00 +9°C° 0 mm 0 m/s 738 mmHg 80%
    04:00 +10°C° 0 mm 0 m/s 738 mmHg 78%
    05:00 +10°C° 0 mm 0 m/s 738 mmHg 77%
    06:00 +11°C° 0 mm 0 m/s 737 mmHg 75%
    07:00 +14°C° 0 mm 1 m/s 737 mmHg 70%
    08:00 +15°C° 0 mm 1 m/s 737 mmHg 65%
    09:00 +17°C° 0 mm 2 m/s 736 mmHg 59%
    10:00 +18°C° 0.1 mm 2 m/s 736 mmHg 57%
    11:00 +19°C° 0.1 mm 3 m/s 735 mmHg 55%
    12:00 +19°C° 0.1 mm 3 m/s 735 mmHg 52%
    13:00 +19°C° 0.2 mm 3 m/s 734 mmHg 54%
    14:00 +19°C° 0.2 mm 3 m/s 733 mmHg 55%
    15:00 +19°C° 0.2 mm 3 m/s 733 mmHg 57%
    16:00 +18°C° 0.4 mm 3 m/s 732 mmHg 63%
    17:00 +16°C° 0.4 mm 2 m/s 732 mmHg 69%
    18:00 +15°C° 0.4 mm 2 m/s 731 mmHg 75%
    19:00 +14°C° 0.1 mm 1 m/s 731 mmHg 76%
    20:00 +14°C° 0.1 mm 1 m/s 731 mmHg 78%
    21:00 +13°C° 0.1 mm 1 m/s 731 mmHg 79%
    22:00 +13°C° 0 mm 1 m/s 731 mmHg 82%
    23:00 +12°C° 0 mm 2 m/s 731 mmHg 85%

    13 Abril, Segunda-feira

    Tempo Temperatura Precipitação Vento Pressão Humidade
    00:00 +12°C° 0 mm 2 m/s 731 mmHg 88%
    01:00 +12°C° 0 mm 2 m/s 731 mmHg 88%
    02:00 +11°C° 0 mm 1 m/s 731 mmHg 89%
    03:00 +11°C° 0 mm 1 m/s 731 mmHg 89%
    04:00 +11°C° 0 mm 1 m/s 731 mmHg 89%
    05:00 +11°C° 0 mm 1 m/s 732 mmHg 90%
    06:00 +10°C° 0 mm 2 m/s 732 mmHg 90%
    07:00 +12°C° 0.2 mm 2 m/s 733 mmHg 89%
    08:00 +12°C° 0.2 mm 2 m/s 733 mmHg 89%
    09:00 +12°C° 0.2 mm 2 m/s 733 mmHg 88%
    10:00 +12°C° 0.3 mm 3 m/s 734 mmHg 86%
    11:00 +13°C° 0.3 mm 4 m/s 734 mmHg 84%
    12:00 +13°C° 0.3 mm 4 m/s 734 mmHg 82%
    13:00 +13°C° 0.2 mm 4 m/s 734 mmHg 82%
    14:00 +12°C° 0.2 mm 4 m/s 735 mmHg 83%
    15:00 +12°C° 0.2 mm 4 m/s 735 mmHg 84%
    16:00 +9°C° 0.1 mm 5 m/s 735 mmHg 80%
    17:00 +7°C° 0.1 mm 5 m/s 736 mmHg 76%
    18:00 +5°C° 0.1 mm 5 m/s 736 mmHg 72%
    19:00 +3°C° 0 mm 5 m/s 737 mmHg 73%
    20:00 +1°C° 0 mm 4 m/s 738 mmHg 75%
    21:00 0°C° 0 mm 4 m/s 739 mmHg 76%
    22:00 -1°C° 0 mm 4 m/s 740 mmHg 75%
    23:00 -1°C° 0 mm 3 m/s 741 mmHg 74%
    Mostrar mais